Location: *
(12.5665°N, 8.3471°E)
Time: 09:13:29
(UTC+00:00)

Meteor 1-19 Rocket - Pass Details

Date: 23 September 2019
Orbit: 818 x 917 km, 81.2° (Epoch: 18 October)

Event Time Altitude Azimuth Distance (km) Brightness Sun altitude
Rises 04:18:54 0° 193° (SSW) 3,368 7.2 -14.7°
Reaches altitude 10° 04:21:19 10° 197° (SSW) 2,447 6.4 -14.1°
Maximum altitude 04:26:46 60° 276° (W) 973 4.2 -12.8°
Drops below altitude 10° 04:32:22 10° 356° (N) 2,511 6.7 -11.4°
Sets 04:34:53 0° 360° (N) 3,464 7.4 -10.8°
